Location: Unspecified
(0.0000°N, 0.0000°E)
Time: 23:24:13
(UTC+00:00)

LES 2 - Pass Details

Date: 14 August 2024
Orbit: 2771 x 14804 km, 32.2° (Epoch: 05 September)

Event Time Altitude Azimuth Distance (km) Brightness Sun altitude
Rises 22:15:20 0° 251° (WSW) 6,882 ? -59.6°
Reaches altitude 10° 22:20:00 10° 239° (WSW) 6,277 ? -60.6°
Enters shadow 22:30:29 27° 202° (SSW) 6,208 ? -62.9°
Exits shadow 23:03:12 21° 133° (SE) 11,477 ? -69.4°
Drops below altitude 10° 23:34:34 10° 113° (ESE) 16,063 ? -74.2°
Sets 00:20:54 0° 95° (E) 19,908 ? -75.5°
